Location: Seattle
(47.6064°N, 122.3308°W)
Time: 07:38:37
(UTC-07:00)

STRAND 1 - Pass Details

Date: 11 April 2023
Orbit: 767 x 779 km, 98.4° (Epoch: 02 June)

Event Time Altitude Azimuth Distance (km) Brightness Sun altitude
Rises 20:47:39 0° 8° (N) 3,250 ? -9.5°
Reaches altitude 10° 20:50:03 10° 2° (N) 2,319 ? -9.9°
Maximum altitude 20:54:50 42° 293° (WNW) 1,084 ? -10.6°
Drops below altitude 10° 20:59:37 10° 223° (SW) 2,306 ? -11.3°
Sets 21:02:00 0° 216° (SW) 3,230 ? -11.7°
